Regional Weather Roundup
Issued by NWS

Home | Current Version | Previous Version | Text Only | Print | Product List | Glossary On
Versions: 1 2 3 4 5 6 7 8 9 10 11 12 13 14 15 16 17 18 19 20 21 22 23 24 25 26 27 28 29 30 31 32 33 34 35 36 37 38 39 40 41 42 43 44 45 46 47 48 49 50
000
ASUS43 KTOP 161708
RWRKS

WEATHER ROUNDUP FOR KANSAS
NATIONAL WEATHER SERVICE GOODLAND KS
1200 PM CDT WED AUG 16 2017

NOTE:  "FAIR" INDICATES FEW OR NO CLOUDS BELOW 12,000 FEET WITH NO
SIGNIFICANT WEATHER AND/OR OBSTRUCTIONS TO VISIBILITY.

KSZ001>006-013>018-027>032-041>047-161800-
NORTHWEST KANSAS

CITY           SKY/WX    TMP DP  RH WIND       PRES   REMARKS
GOODLAND       CLOUDY    70  60  70 NW15      30.01R
HAYS           CLOUDY    72  63  73 NW13      29.93S
HILL CITY      CLOUDY    72  63  73 NW12      29.95S
RUSSELL        CLOUDY    71  63  75 NW10      29.91R
$$

KSZ061>065-074>080-084>089-161800-
SOUTHWEST KANSAS

CITY           SKY/WX    TMP DP  RH WIND       PRES   REMARKS
DODGE CITY     MOSUNNY   80  63  55 NW14      29.94R
ELKHART          N/A     74  60  61 NW7         N/A
GARDEN CITY    SUNNY     76  61  59 N13       29.97S
GREAT BEND     CLOUDY    74  66  76 NW10      29.92R
LIBERAL        SUNNY     77  63  61 N16       29.97S
PRATT          SUNNY     83  67  57 S7        29.87R
$$

KSZ066>073-081>083-090>101-161800-
SOUTHEAST KANSAS

CITY           SKY/WX    TMP DP  RH WIND       PRES   REMARKS
CHANUTE        MOSUNNY   74  68  81 CALM      29.88F
COFFEYVILLE    CLOUDY    74  68  81 N12G22    29.89R
HUTCHINSON     SUNNY     80  70  71 S9        29.85R
MEDICINE LODGE   N/A     84  70  62 S9        29.83S
NEWTON         SUNNY     78  72  81 S17       29.83F
PARSONS        LGT RAIN  72  68  87 N6        29.92R
WICHITA INTL   MOSUNNY   79  71  76 SE10      29.84F
WICHITA JABRA  PTSUNNY   77  71  82 SE13      29.84F
WICHITA MCCONL MOSUNNY   78  69  74 S10       29.85F
WINFIELD       MOSUNNY   85  75  72 S10       29.86F
$$

KSZ007>012-019>026-033>040-048>060-102>105-161800-
NORTHEAST KANSAS

CITY           SKY/WX    TMP DP  RH WIND       PRES   REMARKS
CONCORDIA      PTSUNNY   73  65  75 W16       29.88S
EMPORIA        SUNNY     76  68  76 S14       29.82F
LAWRENCE       CLOUDY    75  74  96 SE7       29.79F
MANHATTAN      SUNNY     77  69  76 CALM      29.84R
MARYSVILLE     CLOUDY    75  68  78 W15G24    29.85R
OLATHE IND     LGT RAIN  79  69  71 E9        29.79F
OLATHE EXE     MOSUNNY   80  71  74 S6        29.81F
SALINA         CLOUDY    77  65  66 NW8       29.87R
TOPEKA BILLARD MOSUNNY   74  70  87 NW5       29.81S
TOPEKA FORBES  CLOUDY    77  70  79 CALM      29.81R
$$



USA.gov is the U.S. government's official web portal to all federal, state and local government web resources and services.